Flag for Croatia Weather past 2 weeks in Zagreb, Croatia

Now
75 °F

Sunny.


Feels Like: 78 °F
Forecast: 57 / 67 °F
Wind: 9 mph from Southwest

Location: Zagreb / Pleso

Current Time: Oct 20, 2014 at 3:05:21 PM

Latest Report: Oct 20, 2014 at 2:30 PM


Visibility: 10 mi

Pressure: 30.07 "Hg

Humidity: 54%

Dew point: 57 °F

Location of ZagrebLocation

Historic Weather in Zagreb — Graph

°F

Zagreb temperature yesterday

Maximum temperature yesterday: 72 °F (at 3:30 PM)
Minimum temperature yesterday: 45 °F (at 6:30 AM)
Average temperature yesterday: 56 °F

Past Weeks' High & Low Weather Summary

 TemperatureHumidityPressure
High81 °F (Oct 10, 3:30 PM)100% (Oct 6, 8:00 AM)30.33 "Hg (Oct 6, 8:00 AM)
Low45 °F (Oct 19, 6:30 AM)39% (Oct 10, 3:30 PM)29.77 "Hg (Oct 15, 2:30 PM)
Average62 °F79%30.01 "Hg
* Reported Oct 5 2:00 PM — Oct 20 2:00 PM, Zagreb, Weather by CustomWeather, © 2014

Note: Actual official high and low records may vary slightly from our data, if they occured in-between our weather recording intervals... More about our weather records

Advertising

Zagreb weather history for previous 24 hours

 ConditionsComfort  
Time TempWeatherWind HumidityBarometerVisibility
2:00 PM
Oct 20
75 °FPassing clouds.7 mph57%30.07 "HgN/A
1:30 PM73 °FPassing clouds.8 mph57%30.09 "HgN/A
1:00 PM72 °FPassing clouds.8 mph61%30.09 "HgN/A
12:30 PM72 °FPassing clouds.8 mph61%30.12 "HgN/A
12:00 PM70 °FPassing clouds.9 mph60%30.12 "HgN/A
11:30 AM68 °FPassing clouds.7 mph69%30.12 "HgN/A
11:00 AM66 °FPassing clouds.9 mph73%30.12 "HgN/A
10:30 AM64 °FSunny.8 mph78%30.12 "Hg10 mi
10:00 AM61 °FSunny.8 mph88%30.15 "Hg10 mi
9:30 AM59 °FSunny.7 mph88%30.12 "Hg10 mi
9:00 AM57 °FSunny.6 mph88%30.15 "Hg10 mi
8:30 AM54 °FPassing clouds.6 mph100%30.15 "HgN/A
8:00 AM50 °FPassing clouds.1 mph100%30.15 "HgN/A
7:30 AM52 °FClear.2 mph94%30.12 "Hg10 mi
7:00 AM50 °FFog.6 mph100%30.12 "HgN/A
5:30 AM50 °FClear.1 mph100%30.12 "Hg10 mi
5:00 AM52 °FClear.5 mph94%30.12 "Hg10 mi
4:30 AM50 °FClear.3 mph100%30.15 "Hg10 mi
4:00 AM52 °FClear.6 mph94%30.15 "Hg10 mi
3:30 AM50 °FFog.6 mph100%30.15 "HgN/A
3:00 AM52 °FFog.3 mph94%30.15 "HgN/A
2:30 AM52 °FFog.2 mph94%30.15 "HgN/A
2:00 AM50 °FFog.2 mph100%30.15 "HgN/A
1:30 AM50 °FFog.1 mph100%30.15 "HgN/A
1:00 AM52 °FFog.2 mph94%30.18 "HgN/A
12:30 AM52 °FClear.2 mph94%30.18 "Hg10 mi
12:00 AM52 °FClear.2 mph94%30.18 "Hg10 mi
11:30 PM
Oct 19
52 °FClear.1 mph94%30.18 "Hg10 mi
11:00 PM54 °FClear.No wind94%30.18 "Hg10 mi
10:30 PM54 °FClear.1 mph94%30.18 "Hg10 mi
10:00 PM54 °FFog.No wind94%30.18 "HgN/A
9:30 PM55 °FClear.2 mph88%30.18 "Hg10 mi
9:00 PM55 °FClear.No wind94%30.18 "Hg10 mi
8:30 PM57 °FClear.1 mph88%30.18 "Hg10 mi
8:00 PM59 °FClear.1 mph82%30.18 "Hg10 mi
7:30 PM61 °FClear.No wind77%30.18 "Hg10 mi
7:00 PM63 °FSunny.No wind73%30.18 "Hg10 mi
6:30 PM66 °FSunny.No wind68%30.18 "Hg10 mi
6:00 PM70 °FSunny.No wind57%30.18 "Hg10 mi
5:30 PM72 °FSunny.1 mph57%30.18 "Hg10 mi
5:00 PM72 °FSunny.2 mph53%30.18 "Hg10 mi
4:30 PM72 °FPassing clouds.3 mph57%30.21 "HgN/A
4:00 PM72 °FSunny.2 mph57%30.21 "Hg10 mi
3:30 PM72 °FSunny.2 mph61%30.21 "Hg10 mi
3:00 PM70 °FPassing clouds.3 mph64%30.24 "HgN/A
Weather by CustomWeather, © 2014

See weather overviewHow to use our weather pages